Baseball 板


LINE

15:30 嘉义辅仁中学 VS 彰化高中 ELTA体育台 youtube直播:纬来: https://www.youtube.com/watch?v=xg7qvU1YNNM
ELTA: https://www.youtube.com/watch?v=X0BnexDYy2A
hichannel: http://hichannel.hinet.net/live.do?id=448 辅仁中学 101年 高中棒球联赛(软式组)小组冠军 全国赛第八名(49队参赛) → 知名校友: 沈玉琳.蔡阿嘎 彰化高中 日前 高中棒球联赛 彰化高中(当时主力为二年级)以 10:12 小输辅仁中学, 今日彰化高中阵容仍然以二年级为主, 而板凳区主要由三年级组成. https://webptt.com/cn.aspx?n=bbs/Baseball/M.1417185245.A.B31.html → 知名校友: 李昌钰.任贤齐.浩子 --



※ 发信站: 批踢踢实业坊(ptt.cc), 来自: 211.22.219.163
※ 文章网址: http://webptt.com/cn.aspx?n=bbs/Baseball/M.1417244461.A.63B.html
1F:推 iceyang: 彰中人推! 11/29 15:03
2F:推 noyuri1006: 二推~ 11/29 15:06
3F:推 moneychen: 李昌钰 XD 11/29 15:09
4F:推 elefox: http://i.imgur.com/z7kmBZh.jpg 学弟加油 11/29 15:11
5F:推 magicwu: 顶新魏家也是彰中的唷 11/29 15:13
6F:推 fuhaha: 彰中加油!!! 11/29 15:13
7F:→ sorrycar: 施崇棠 施振荣 彰中捐钱大户 11/29 15:13
8F:→ hicker: 被抢光了.... 11/29 15:14
9F:→ hicker: 原po明天以後还要贴吗?? 11/29 15:15
10F:推 kuovsphy: 我大学前後任系主任之校友学校对决... 11/29 15:15
11F:推 kimibear: 辅仁推 11/29 15:15
12F:推 death3000: 彰中人 推 11/29 15:16
13F:推 ss36: 彰中加油!! 11/29 15:16
14F:→ kimibear: 任贤齐读过辅仁国中部 11/29 15:17
15F:→ kimibear: 所以他是两校校友XD 11/29 15:17
16F:→ sorrycar: 好怀念那件彰中大奶罩 煞气的运动服 11/29 15:17
17F:→ hicker: 辅仁中学 跟 辅仁大学 有关系吗?? 11/29 15:17
18F:→ kimibear: 同一个董事会 11/29 15:17
19F:推 DukeMonkey: 彰中校友推 11/29 15:20
20F:→ hicker: 原po明天以後还要贴吗?? 11/29 15:20
21F:推 a600tw: 辅中棒球人推!!!!!! 11/29 15:21
22F:推 elefox: 彰中仪队准备表演中 11/29 15:22
23F:推 Carlifar: 彰中人一定要推的啦!!! 11/29 15:23
24F:推 nk8614: 彰化人推!! 竟然还有仪队表演 11/29 15:26
25F:推 ChunYuLin: 辅仁学弟加油!! 11/29 15:33
26F:推 iceyang: 彰中 彰中 文教源~~ 11/29 15:34
27F:推 REDBLUEr: "中华民国"队球衣 11/29 15:36
28F:推 elefox: 辅仁先发是左投 11/29 15:37
29F:推 noyuri1006: 我是希望hicker大贴啦^^ 11/29 15:37
30F:推 altisvitas: 同楼上 11/29 15:38
31F:推 jefftie2000: 肉圆 鸡肉饭XD 11/29 15:39
32F:推 ss36: 肉圆vs鸡肉饭XDD 11/29 15:39
33F:推 carhow: http://i.imgur.com/ErFIH6o.png 11/29 15:39
34F:推 tip790322: 目前 台南球场 中大坜中 对 东势高工 0 比4 11/29 15:39
35F:推 peteru4: 怎麽不是鸡球饭 VS 鸡肉饭 11/29 15:39
36F:推 mlb0611: 推REDLUBEr大,这是复古的中华队的球衣(辅仁中学) 11/29 15:41
37F:推 anti56: 学弟稳住啊!!!!! 11/29 15:42
38F:推 aneaneane: 辅仁加油!小汪老师加油! 11/29 15:42
39F:推 bogy1188: 彰中 11/29 15:42
40F:→ anti56: 小汪永远娃娃脸~~~~~~~~ 11/29 15:42
41F:推 REDBLUEr: 球衣真正写过中华民国四个字 不只是中华队这简称 11/29 15:43
42F:推 tip790322: 台南 中大 对 东势 0比5 一局 11/29 15:44
43F:推 Je1981: 加油!学弟... 11/29 15:45
44F:推 wlin127: 坜中加油 11/29 15:46
45F:推 tip790322: 台南 中大 对 东势 0比6 一局 11/29 15:47
46F:→ paso: 果然有人问辅中和辅大的关系XD 11/29 15:55
47F:推 REDBLUEr: 辅中和辅大的董事会已经各自独立运作了 11/29 15:55
48F:推 Ec73Iwai: 彰中投手要挺住QQ 11/29 15:55
49F:推 a600tw: 辅仁中学和辅仁大学都属圣言会 前辅中校长现为台湾总主教 11/29 15:58
50F:→ a600tw: 两校的建筑风格上有相似 创校初期是同一批人员负责规划 11/29 15:59
51F:→ a600tw: 小弟读辅中时 听说本来辅大要在嘉义!! 但是後来选在新庄 11/29 15:59
52F:推 saint01: 彰中推 11/29 16:00
53F:→ a600tw: 所以该校地变辅中 以高中来说6甲地算不小 11/29 16:00
54F:推 david0605: 推 11/29 16:02
55F:→ REDBLUEr: 建筑风格其实有点窄的说明 其实两个学校 都有欧洲不同 11/29 16:02
56F:→ REDBLUEr: 国家文化的特色建筑 尤其是辅大 不同学系的设计不同 11/29 16:02
57F:推 tip790322: 台南 中大 对 东势 0比7 二局 11/29 16:03
58F:推 sony1256: 喔喔喔!!! 竟然抓到哦!!! 社团的!! 11/29 16:03
59F:→ REDBLUEr: 但都还是有以最早德国为主的风格 11/29 16:03
60F:推 Ec73Iwai: 辅仁捕手是洪中附身喔... 11/29 16:04
61F:推 a600tw: 学弟GJ!!! 11/29 16:05
62F:推 tip790322: 台南 中大 对 东势 0比8 刚刚差点hr 11/29 16:05
63F:推 tip790322: 台南 中大 对 东势 0比9 二局结束 11/29 16:09
64F:推 REDBLUEr: 123km/hr K 11/29 16:09
65F:推 a600tw: 汪振元老师娃娃脸 国中就这一张脸 跟陈致远同班过 11/29 16:10
66F:→ doraelephant: 还蛮强的 社团投到123 11/29 16:10
67F:→ REDBLUEr: 应该打过正式球队吧 现在这打者也是 11/29 16:11
68F:→ REDBLUEr: 梁如豪:两套主客场球衣都是中华队 打起来比较有PowerXD 11/29 16:11
69F:推 Ec73Iwai: 中华队内战XD 11/29 16:13
70F:推 HumanBenzene: 125真的满猛的XD 11/29 16:13
71F:推 alanwang65: 投到125了,单局3K 11/29 16:13
72F:推 wlin127: 东势总教练林仲秋~前三商全垒打王~东势打击应该很强 11/29 16:13
73F:推 channiny: 彰中先发我同学 11/29 16:14
74F:推 abc33211: 哈哈 教啊也太有趣 11/29 16:14
75F:→ REDBLUEr: @Ec73Iwai 球评是指辅中自己有两套主客场球衣 11/29 16:14
76F:→ alanwang65: 投手看起来稳下来了,接下来得靠打者得分~ 11/29 16:15
77F:→ REDBLUEr: 如果打自家练习赛就是真的内战了 XDDD 11/29 16:15
78F:推 Ec73Iwai: 喔喔我以为是指彰中头上的C 11/29 16:15
79F:推 Ricky850920: 坜中加油 (by高三学长心中呐喊) 11/29 16:16
80F:→ REDBLUEr: 捕手真的是洪一中上身 XD 11/29 16:17
81F:推 alanwang65: 这捕手传得相当好耶~ 11/29 16:18
82F:推 wlin127: 坜中加油!撑过五局就算赢! 11/29 16:20
83F:推 tip790322: 台南 中大 对 东势 0比9 满垒残 三上 11/29 16:20
84F:推 Ec73Iwai: 裁判帮忙挡了一分XD 11/29 16:20
85F:→ Ec73Iwai: 这捕手也不简单 有点经验 11/29 16:21
86F:推 alanwang65: 以社团型,这捕手优喔~有传球又有观念~ 11/29 16:22
87F:→ aiiueo: 辅大不属圣言会 辅大是圣言 耶稣 台湾主教团共管 11/29 16:22
88F:→ aiiueo: 辅中则是圣言会直属 虽然上头都是罗马教廷 11/29 16:23
89F:推 jackyxul4: 彰中校长到现场了! 11/29 16:24
90F:推 anti56: 有种想冲回辅中KGB的冲动!!! 11/29 16:24
91F:推 Ec73Iwai: 彰中三垒手(?)让我想到鹰侠XDD 帅气接球然後魔送球 11/29 16:25
92F:→ aiiueo: 反而基隆市的辅大圣心高级中学算是辅仁大学的一部分 11/29 16:25
93F:→ Ec73Iwai: 加油加油 11/29 16:26
94F:→ aiiueo: 辅大圣心跟辅仁大学董事会才是一样的 11/29 16:26
95F:推 REDBLUEr: 强迫取分 球棒震到自己 XDDD 11/29 16:28
96F:推 tip790322: 台南 中大 对 东势 0比11 三局未完 11/29 16:29
97F:推 Ec73Iwai: 手受伤 安全第一啊 11/29 16:29
98F:推 alanwang65: 强迫取分耶~XDD 11/29 16:30
99F:推 chiawww: 刚刚那球接的漂亮耶!! 11/29 16:31
100F:推 Ec73Iwai: 辅仁SS差一点就可以当咖啡了 可惜 11/29 16:35
101F:推 REDBLUEr: 变双杀 XD 11/29 16:36
102F:推 anti56: DP!!!! 11/29 16:36
103F:→ REDBLUEr: 这场辅仁用观念就打得赢了 啧啧 11/29 16:36
104F:推 alanwang65: DP耶~还是没得分XD 11/29 16:37
105F:推 Ec73Iwai: 辅仁临场反应技高一筹 佩服 11/29 16:37
106F:推 noyuri1006: 守备真的很重要^^~~~ 11/29 16:37
107F:推 Ec73Iwai: 彰中相对是靠投手在撑比较多 11/29 16:39
108F:→ Ec73Iwai: 才说完就触身QQ 11/29 16:40
109F:推 abc33211: 这膝盖会坏吧 11/29 16:42
110F:→ abc33211: 滑垒看了好痛 11/29 16:42
111F:推 tip790322: 台南 中大 对 东势 0比11 四上结束 11/29 16:42
112F:推 Ec73Iwai: 辅仁的扑接QQ 老话安全第一 11/29 16:43
113F:推 abc33211: 辅仁的加油口号好像LM 11/29 16:45
114F:推 wlin127: 平常似乎都没练滑垒,教练没教吗?超危险的! 11/29 16:45
115F:推 Ec73Iwai: 啊靠 我家附近放鞭炮是怎样 是躺着选上喔 11/29 16:46
116F:→ abc33211: 彰中开始不稳了 11/29 16:46
117F:推 Ec73Iwai: 投手续投!! 11/29 16:47
118F:推 abc33211: 辅仁7 11/29 16:48
119F:推 Ec73Iwai: 大橘............... 11/29 16:50
120F:推 tip790322: 台南 中大 对 东势 0比12 四下 11/29 16:50
121F:推 jay1105zz: 推辅仁 加油! 11/29 16:51
122F:推 abc33211: 现在这个打者有比全民运!! 11/29 16:51
123F:→ abc33211: 有点op啊! 11/29 16:51
124F:推 alanwang65: 守备各种漏洞... 11/29 16:53
125F:推 abc33211: 彰中换投,#11 11/29 16:54
126F:→ abc33211: 更正,彰中换#10 11/29 16:55
127F:推 jjxiah: 推辅仁 学弟加油 11/29 16:55
128F:推 Greenmade: 彰中校友推!!!!! 11/29 16:56
129F:推 Ec73Iwai: 辅仁真的不错 彰中校友还是来赞赏一下 11/29 16:57
130F:推 tip790322: 台南 中大 对 东势 0比12 五上结束 11/29 17:00
131F:推 Ec73Iwai: 砍球在黑豹旗还是很有用的XDD 11/29 17:01
132F:→ abc33211: 辅仁左外将功赎罪,跑者本来死 11/29 17:03
133F:推 REDBLUEr: 捕手好强 触杀位置和挡跑者真的很确实 11/29 17:03
134F:→ abc33211: 本垒死 11/29 17:03
135F:推 Ec73Iwai: 捕手强!! 11/29 17:04
136F:推 elefox: 辅仁捕手真的关键 彰中校友现场推 11/29 17:06
137F:推 tip790322: 台南 中大 对 东势 0比12 五局结束 11/29 17:06
138F:推 abc33211: 谢谢tip 11/29 17:08
139F:推 abc33211: 下雨了!? 11/29 17:11
140F:推 Ec73Iwai: 砍到坏球喷到休息室 11/29 17:12
141F:推 alanwang65: 一垒手搞笑XDD 11/29 17:14
142F:推 tip790322: 台南 中大 对 东势 0比12 五局结束 11/29 17:14
143F:推 bignoob: 彰中跟着跳 11/29 17:15
144F:→ bignoob: 辅仁也跟着跳 11/29 17:16
145F:推 elefox: 豹女郎和彰中学弟共舞 http://i.imgur.com/3UYjxRg.jpg 11/29 17:17
146F:→ elefox: 辅仁只有一个出来跳 11/29 17:17
147F:推 tip790322: 台南 中大 对 东势 0比13 六局下 11/29 17:19
148F:推 tip790322: 台南 中大 对 东势 0比15 比赛结束 六局ko 11/29 17:28
149F:推 abc33211: 谢谢tip大 11/29 17:28
150F:推 Ricky850920: 谢谢tip 11/29 17:29
151F:推 abc33211: 盗本垒失败 11/29 17:37
152F:推 elefox: 想三盗垒XD 本垒死 11/29 17:37
153F:→ abc33211: 不过怎麽没滑垒@@ 11/29 17:37
154F:推 yyc1217: 想盗本垒XDDD 11/29 17:37
155F:推 REDBLUEr: 转身离开 有球传不出来~ XD 11/29 17:46
156F:推 yyc1217: 辅仁的内野守备中邪了吗= = 11/29 17:47
157F:推 elefox: 破蛋!!! 11/29 17:50
158F:推 essolo: 彰中破蛋了@o@ 11/29 17:51
159F:→ essolo: 8:4了!! 11/29 17:53
160F:推 yyc1217: 清垒的二垒安打 11/29 17:53
161F:推 yugin900524: 清垒啦!! 11/29 17:53
162F:推 elefox: 差三分了!!! 11/29 17:55
163F:推 yyc1217: 跑垒可惜了 难得大局的说 11/29 17:55
164F:推 Ec73Iwai: !!!!!! 11/29 17:57
165F:推 Loki1230: 1122辅仁高中校友推 11/29 17:58
166F:推 yyc1217: 三上三下 11/29 18:03
167F:推 abc33211: 欧霸,3B 11/29 18:13
168F:推 abc33211: 辅仁9 11/29 18:15
169F:→ abc33211: 辅仁10 11/29 18:16
170F:推 Sheng98: 麦可乔登附身 11/29 18:20
171F:推 elefox: 彰中逆转吧!!!! 11/29 18:21
172F:推 abc33211: 罗拿度又来啦 11/29 18:25
173F:推 abc33211: 彰化高中逆转失败 5:10辅仁 11/29 18:29
174F:推 barry00561: 不离不弃 是我学弟 11/29 20:59
175F:推 mosoker: 不离不弃 是我学弟 11/29 21:33
176F:推 pase139: 最近嘉义县市的球队成绩都不俗 11/29 23:35







like.gif 您可能会有兴趣的文章
icon.png[问题/行为] 猫晚上进房间会不会有憋尿问题
icon.pngRe: [闲聊] 选了错误的女孩成为魔法少女 XDDDDDDDDDD
icon.png[正妹] 瑞典 一张
icon.png[心得] EMS高领长版毛衣.墨小楼MC1002
icon.png[分享] 丹龙隔热纸GE55+33+22
icon.png[问题] 清洗洗衣机
icon.png[寻物] 窗台下的空间
icon.png[闲聊] 双极の女神1 木魔爵
icon.png[售车] 新竹 1997 march 1297cc 白色 四门
icon.png[讨论] 能从照片感受到摄影者心情吗
icon.png[狂贺] 贺贺贺贺 贺!岛村卯月!总选举NO.1
icon.png[难过] 羡慕白皮肤的女生
icon.png阅读文章
icon.png[黑特]
icon.png[问题] SBK S1安装於安全帽位置
icon.png[分享] 旧woo100绝版开箱!!
icon.pngRe: [无言] 关於小包卫生纸
icon.png[开箱] E5-2683V3 RX480Strix 快睿C1 简单测试
icon.png[心得] 苍の海贼龙 地狱 执行者16PT
icon.png[售车] 1999年Virage iO 1.8EXi
icon.png[心得] 挑战33 LV10 狮子座pt solo
icon.png[闲聊] 手把手教你不被桶之新手主购教学
icon.png[分享] Civic Type R 量产版官方照无预警流出
icon.png[售车] Golf 4 2.0 银色 自排
icon.png[出售] Graco提篮汽座(有底座)2000元诚可议
icon.png[问题] 请问补牙材质掉了还能再补吗?(台中半年内
icon.png[问题] 44th 单曲 生写竟然都给重复的啊啊!
icon.png[心得] 华南红卡/icash 核卡
icon.png[问题] 拔牙矫正这样正常吗
icon.png[赠送] 老莫高业 初业 102年版
icon.png[情报] 三大行动支付 本季掀战火
icon.png[宝宝] 博客来Amos水蜡笔5/1特价五折
icon.pngRe: [心得] 新鲜人一些面试分享
icon.png[心得] 苍の海贼龙 地狱 麒麟25PT
icon.pngRe: [闲聊] (君の名は。雷慎入) 君名二创漫画翻译
icon.pngRe: [闲聊] OGN中场影片:失踪人口局 (英文字幕)
icon.png[问题] 台湾大哥大4G讯号差
icon.png[出售] [全国]全新千寻侘草LED灯, 水草

请输入看板名称,例如:Soft_Job站内搜寻

TOP